Location: Shannon
(40.5500°S, 175.4167°E)
Time: 20:15:42
(UTC+00:00)

Cosmos 1538 Rocket - Pass Details

Date: 17 November 2025
Orbit: 748 x 787 km, 74.0° (Epoch: 14 December)

Event Time Altitude Azimuth Distance (km) Brightness Sun altitude
Exits shadow 13:02:33 63° 106° (ESE) 886 4.3 -28.8°
Drops below altitude 10° 13:07:27 10° 155° (SSE) 2,382 7.5 -28.5°
Sets 13:09:53 0° 158° (SSE) 3,318 8.5 -28.4°
